Boonton, New Jersey, United States (07005)
Lat: 40.90N, Lon: 74.41W
Wx Zone: NJZ008
Local Info
Past Weather Observations for Sunday, October 19, 2014

NOTE: This archive is for the closest National Weather Service station to Boonton. Information may differ from the station used for current weather conditions.

Click here for Long-term Archive

Time Weather Temperature Dewpoint Humidity Pressure Winds Precip Visibility
23:53
Clear
37°F / 3°C 28°F / -2°C 70% 30.09 in
(1019 mb)
Calm - 10SM
22:53
Clear
39°F / 4°C 27°F / -3°C 61% 30.09 in
(1019 mb)
SW 3.5 mph
(SW 6 kph)
- 10SM
21:53
Clear
41°F / 5°C 27°F / -3°C 57% 30.09 in
(1019 mb)
Calm - 10SM
20:53
Clear
43°F / 6°C 25°F / -4°C 49% 30.06 in
(1018 mb)
Calm - 10SM
19:53
Clear
43°F / 6°C 25°F / -4°C 49% 30.06 in
(1018 mb)
NW 4.6 mph
(NW 7 kph)
- 10SM
18:53
Clear
45°F / 7°C 27°F / -3°C 49% 30.06 in
(1018 mb)
Variable 3.5 mph
(Variable 6 kph)
- 10SM
17:53
Clear
46°F / 8°C 25°F / -4°C 43% 30.04 in
(1017 mb)
NW 8.1 mph
(NW 13 kph)
- 10SM
16:53
Clear
48°F / 9°C 25°F / -4°C 40% 30.01 in
(1016 mb)
NW 6.9 mph
(NW 11 kph)
- 10SM
15:53
Clear
50°F / 10°C 25°F / -4°C 37% 29.98 in
(1015 mb)
NW 15 mph
(NW 24 kph)
- 10SM
14:53
Clear
52°F / 11°C 25°F / -4°C 35% 29.95 in
(1014 mb)
NW 17.3 mph
(NW 28 kph)
- 10SM
13:53
Clear
52°F / 11°C 25°F / -4°C 35% 29.95 in
(1014 mb)
Variable 5.8 mph
(Variable 9 kph)
- 10SM
12:53
Partly Cloudy
52°F / 11°C 25°F / -4°C 35% 29.92 in
(1013 mb)
NW 16.1 mph
(NW 26 kph)
- 10SM
11:53
Partly Cloudy
52°F / 11°C 28°F / -2°C 41% 29.95 in
(1014 mb)
NW 15 mph
(NW 24 kph)
- 10SM
10:53
Mostly Cloudy
50°F / 10°C 30°F / -1°C 47% 29.95 in
(1014 mb)
NNW 12.7 mph
(NNW 20 kph)
- 10SM
09:53
Partly Cloudy
52°F / 11°C 32°F / 0°C 47% 29.92 in
(1013 mb)
NW 11.5 mph
(NW 19 kph)
- 10SM
08:53
Overcast
50°F / 10°C 34°F / 1°C 54% 29.92 in
(1013 mb)
NNW 10.4 mph
(NNW 17 kph)
- 10SM
07:53
Overcast
48°F / 9°C 36°F / 2°C 62% 29.92 in
(1013 mb)
NNW 12.7 mph
(NNW 20 kph)
- 10SM
06:53
Overcast
48°F / 9°C 37°F / 3°C 66% 29.89 in
(1012 mb)
NNW 8.1 mph
(NNW 13 kph)
- 10SM
05:53
Overcast
50°F / 10°C 36°F / 2°C 58% 29.83 in
(1010 mb)
NNW 8.1 mph
(NNW 13 kph)
- 10SM
04:53
Overcast
52°F / 11°C 36°F / 2°C 54% 29.83 in
(1010 mb)
NW 11.5 mph
(NW 19 kph)
- 10SM
03:53
Overcast
52°F / 11°C 37°F / 3°C 58% 29.8 in
(1009 mb)
NNW 12.7 mph
(NNW 20 kph)
- 10SM
02:53
Overcast
54°F / 12°C 39°F / 4°C 58% 29.77 in
(1008 mb)
NW 8.1 mph
(NW 13 kph)
- 10SM
01:53
Overcast
54°F / 12°C 39°F / 4°C 58% 29.74 in
(1007 mb)
NW 9.2 mph
(NW 15 kph)
- 10SM
00:53
Overcast
54°F / 12°C 39°F / 4°C 58% 29.74 in
(1007 mb)
WNW 6.9 mph
(WNW 11 kph)
- 10SM
Time Weather Temperature Dewpoint Humidity Pressure Winds Precip Visibility


Weather for websites

WeatherForYou.com, LLC is not responsible for any damages or problems caused by this service. Current weather conditions are obtained from the closest station including government and personal stations which may have varying degrees of accuracy. Weather forecasts are derived from the NOAA NDFD. Like all things, this site belongs to Jesus Christ... He just trusts me to maintain it. If you have any questions or comments email webmaster@weatherforyou.com

Copyright © 2014, WeatherForYou.com LLC. All rights reserved.